Location: ?? ????
(31.2111°N, 45.4275°E)
Time: 00:19:19
(UTC+00:00)

Daily predictions for brighter satellites

Satellite Brightness Start Highest point End
(mag) Time Altitude Azimuth Time Altitude Azimuth Time Altitude Azimuth
Lacrosse 5 rocket 4.2 00:03:29 14° NNE 00:04:29 15° NE 00:07:07 10° ENE
USA 215 3.7 00:03:59 10° NE 00:10:19 52° SE 00:10:58 50° SSE
ATLAS 3B R/B 3.3 00:17:33 41° NNW 00:17:33 41° NNW 00:22:24 10° NNE
Cosmos 1092 Rocket 3.9 00:20:48 75° NNE 00:20:48 75° NNE 00:26:23 10° N
Yuri Rocket 4.1 00:29:12 54° SSE 00:29:12 54° SSE 00:35:22 10° E
IDEFIX/ARIANE 42P 2.9 00:28:26 10° NNE 00:33:41 65° E 00:34:43 52° SSE
ASTRO E2 4.1 00:38:41 35° E 00:38:41 35° E 00:41:10 10° E
Cosmos 2369 Rocket 3.8 00:40:20 21° NNW 00:40:20 21° NNW 00:42:53 10° N
Cosmos 1656 Rocket 3.7 00:39:18 64° NW 00:39:18 64° NW 00:44:27 10° NNE
PSLV R/B 4.1 00:34:41 10° NNE 00:38:09 54° NE 00:38:09 54° NE
Cosmos 1733 Rocket 4.1 00:34:49 10° N 00:39:05 44° E 00:43:19 10° SSE
Cosmos 1627 Rocket 4.4 00:41:24 51° SSW 00:43:09 82° W 00:49:33 10° N
ADEOS II 4.4 00:42:19 10° NNW 00:42:27 10° NNW 00:42:27 10° NNW
Meteor 2-6 Rocket 4.2 00:46:05 66° W 00:46:19 67° W 00:52:12 10° N
Iridium 4 Rocket 3.6 00:48:48 49° NNW 00:48:48 49° NNW 00:52:03 10° N
Centaur AC-119 3.2 00:49:30 44° SSE 00:49:30 44° SSE 00:55:53 10° E
Atlas Centaur 2 2.6 00:50:08 53° W 00:51:58 79° S 01:00:00 10° ESE
Meteor 1-27 Rocket 4.0 00:48:30 15° S 00:53:31 73° E 00:59:20 10° NNE
CENTAUR R/B 3.7 00:58:17 23° NW 00:58:22 23° NW 01:03:33 10° N
OAO 2 Rocket 3.2 00:58:32 63° SSW 00:59:10 73° SSE 01:04:04 10° ENE
Meteor 1-10 Rocket 4.4 01:00:29 48° WSW 01:01:35 55° W 01:07:23 10° N
Aureole 2 Rocket 4.5 01:05:52 15° N 01:05:52 15° N 01:06:24 10° NNE
Cosmos 1461 2.7 01:03:52 76° WSW 01:03:52 76° WSW 01:08:05 10° SSE
Cosmos 1538 Rocket 3.9 01:05:19 27° SSW 01:08:15 88° ESE 01:13:26 10° NNE
Cosmos 1500 3.8 01:07:25 10° N 01:11:07 56° E 01:14:49 10° SSE
Cosmos 1553 Rocket 4.3 01:06:10 10° N 01:12:21 66° E 01:18:25 10° SSE
Meteor 1-11 Rocket 3.8 01:09:36 10° N 01:15:11 78° E 01:20:41 10° S
Cosmos 44 Rocket 3.2 01:13:07 31° SSW 01:15:32 84° WNW 01:20:34 10° NNE
Cosmos 1703 Rocket 4.1 01:12:54 10° S 01:17:16 60° E 01:21:38 10° NNE
Cosmos 2026 Rocket 4.4 01:17:26 29° SW 01:19:54 41° W 01:25:50 10° N
Cosmos 2242 Rocket 3.6 01:17:44 28° SSW 01:19:58 60° W 01:24:27 10° N
Shenzhou-11 Module 2.9 01:20:06 33° SSE 01:20:16 33° SE 01:22:47 10° ENE
Cosmos 1315 Rocket 2.9 01:19:23 40° SW 01:20:35 57° W 01:24:40 10° N
CZ-2C R/B 2.5 01:19:25 10° NNE 01:24:23 84° ESE 01:29:28 10° S
Cosmos 1812 3.1 01:25:50 39° W 01:25:54 39° W 01:29:32 10° N
Timation 2 Rocket 4.1 01:21:01 10° NNW 01:27:00 73° ENE 01:32:58 10° SSE
Cosmos 1862 Rocket 4.4 01:29:29 29° W 01:29:31 29° W 01:33:24 10° NNW
SJ-6F 4.4 01:26:02 10° N 01:30:12 67° WNW 01:34:21 10° SSW
Intelsat 5-1 Rocket 4.3 01:19:52 23° WSW 01:30:19 56° S 01:36:14 10° ESE
BREEZE-M DEB (TANK) 3.6 01:24:29 13° SW 01:30:23 55° SE 01:33:05 10° ENE
ADEOS 4.5 01:27:18 10° NNW 01:31:39 27° WNW 01:32:49 25° W
H-II Stage 2 3.0 01:31:09 28° WSW 01:32:58 50° S 01:45:58 10° ESE
Cosmos 1655 Rocket 3.9 01:29:30 10° SSW 01:35:39 66° W 01:41:52 10° N
SeaSat 1 3.6 01:32:12 10° N 01:36:08 24° WNW 01:37:28 22° W
Hubble Space Telescope 1.1 01:34:48 29° WSW 01:36:32 51° S 01:40:33 10° ESE
H-2A R/B 3.6 01:40:20 10° NNW 01:43:13 21° WNW 01:43:24 20° WNW
Lacrosse 5 rocket 1.5 01:39:38 10° NW 01:43:56 61° SW 01:48:23 10° SSE
Meteor 2-13 Rocket 4.4 01:40:31 10° S 01:46:39 80° W 01:52:50 10° N
Okean 1-7 3.0 01:42:55 10° SSW 01:47:17 71° W 01:51:41 10° N
PAYLOAD A 4.3 01:45:28 10° N 01:49:47 38° WNW 01:54:06 10° SW
Okean 1 4.0 01:47:02 10° S 01:50:54 58° E 01:54:47 10° NNE
Sakura Rocket 3.5 01:49:29 18° W 01:52:50 67° S 01:59:01 10° E
USA 215 3.9 01:47:12 10° NNE 01:53:06 38° NW 01:58:19 13° W
COSMO-SKYMED 1 4.4 01:49:47 10° SE 01:53:45 36° ENE 01:57:43 10° N
S3M 3.9 01:47:36 10° N 01:53:46 71° W 02:00:01 10° S
Helios 1A Rocket 3.8 01:50:33 10° NNE 01:54:32 53° E 01:58:32 10° S
PSLV R/B 3.7 01:50:46 10° N 01:54:45 81° WNW 01:58:37 10° SSW
Meteor 1-31 Rocket 3.4 01:55:38 10° N 01:59:13 36° WNW 02:02:46 10° SW
OAO 3 Rocket 3.3 01:57:38 12° WSW 02:01:48 67° SSE 02:06:26 10° ENE
CZ-4B R/B 4.2 01:58:49 10° NNE 02:04:09 51° E 02:09:21 10° S
Meteor PRIRODA 3.9 02:02:08 10° N 02:05:41 46° WNW 02:09:14 10° SSW
Cosmos 1666 2.6 02:02:16 10° N 02:06:01 72° W 02:09:46 10° S
Cosmos 1908 Rocket 3.9 02:02:39 10° NNW 02:06:43 41° W 02:10:48 10° SSW
Cosmos 1536 3.6 02:06:00 10° NNW 02:09:28 29° W 02:12:56 10° SSW
CZ-3B R/B 1.9 02:08:26 10° SW 02:09:58 16° S 02:12:10 10° SE
Cosmos 1340 3.6 02:08:50 10° NNW 02:12:04 27° W 02:15:16 10° SSW
Cosmos 2112 Rocket 4.0 02:07:02 10° SSW 02:12:19 86° WNW 02:17:36 10° NNE
IDEFIX/ARIANE 42P 4.4 02:10:32 10° NW 02:12:39 12° WNW 02:14:45 10° W
Cosmos 1346 Rocket 3.8 02:10:08 10° NW 02:13:36 27° W 02:17:01 10° SSW
ASTRO E2 2.7 02:13:40 10° W 02:17:40 86° N 02:21:40 10° E
Okean O Rocket 1.9 02:13:29 10° NNE 02:17:58 77° ESE 02:22:24 10° S
Cosmos 1697 Rocket 4.1 02:14:58 10° S 02:20:16 43° ESE 02:25:36 10° NE
CZ-4B R/B 4.4 02:19:07 10° NNW 02:22:37 22° WNW 02:26:04 10° WSW
Cosmos 2227 Rocket 4.4 02:18:19 10° N 02:23:18 31° ENE 02:28:14 10° SE
Cosmos 2219 4.1 02:18:25 10° N 02:24:00 56° ENE 02:29:31 10° SE
Yuri Rocket 4.4 02:20:02 10° W 02:26:04 70° S 02:34:40 10° ESE
Cosmos 2266 Rocket 4.5 02:21:15 10° SW 02:26:50 37° W 02:32:23 10° NNW
